Change the Weather History Date:

Tuesday, October 1, 2013

  Actual Average Record
Temperature  
Mean Temperature 43 °F 50 °F  
Max Temperature 59 °F 68 °F 90 °F (2010)
Min Temperature 27 °F 31 °F 13 °F (1950)
Degree Days  
Heating Degree Days 22 15  
Month to date heating degree days 22 15  
Since 1 July heating degree days 293 457  
Cooling Degree Days 0 0  
Month to date cooling degree days 0 0  
Year to date cooling degree days 258 169  
Moisture  
Dew Point 32 °F    
Average Humidity 67    
Maximum Humidity 100    
Minimum Humidity 33    
Precipitation  
Precipitation T in 0.02 in 0.38 in (1957)
Month to date precipitation T 0.02  
Year to date precipitation 7.77 7.64  
Sea Level Pressure  
Sea Level Pressure 30.07 in    
Wind  
Wind Speed 4 mph (West)    
Max Wind Speed 28 mph    
Max Gust Speed 35 mph    
Visibility 10 miles    
Events Rain    
T = Trace of Precipitation, MM = Missing Value Source: NWS Daily Summary

Daily Weather History Graph

Daily Weather History Graph

Search for Another Location

Airport or City:

Trip Planner

Search our weather history database for the weather conditions in past years. The results will help you decide how hot, cold, wet, or windy it might be!

Date:

Astronomy

Oct. 01, 2013 Rise Set
Actual Time 6:49 AM PDT 6:31 PM PDT
Civil Twilight 6:20 AM PDT 7:00 PM PDT
Nautical Twilight 5:46 AM PDT 7:34 PM PDT
Astronomical Twilight 5:11 AM PDT 8:08 PM PDT
Moon 3:21 AM PDT (10/1) 4:43 PM PDT (10/1)
Length of Visible Light 12h 39m
Length of Day
11h 41m
Waning Crescent, 11% of the Moon is Illuminated
Oct 1
Waning Crescent
Oct 4
New
Oct 11
First Quarter
Oct 18
Full
Oct 26
Last Quarter

Hourly Weather History & Observations

Time (PDT) Temp. Windchill Dew Point Humidity Pressure Visibility Wind Dir Wind Speed Gust Speed Precip Events Conditions
12:53 AM 37.9 °F 35.5 °F 32.0 °F 79% 29.99 in 10.0 mi WSW 3.5 mph - N/A   Partly Cloudy
1:53 AM 35.1 °F - 30.9 °F 85% 30.00 in 10.0 mi Calm Calm - N/A   Clear
2:53 AM 30.0 °F - 28.0 °F 92% 30.00 in 10.0 mi Calm Calm - N/A   Scattered Clouds
3:53 AM 30.0 °F - 28.9 °F 96% 30.02 in 10.0 mi Calm Calm - N/A   Mostly Cloudy
4:53 AM 33.1 °F 28.7 °F 30.9 °F 92% 30.03 in 10.0 mi SSE 4.6 mph - N/A   Overcast
5:53 AM 32.0 °F 28.7 °F 30.0 °F 92% 30.03 in 10.0 mi ESE 3.5 mph - N/A   Mostly Cloudy
6:53 AM 30.0 °F - 28.9 °F 96% 30.05 in 10.0 mi Calm Calm - N/A   Partly Cloudy
7:53 AM 33.1 °F - 30.9 °F 92% 30.06 in 10.0 mi Calm Calm - N/A   Clear
8:53 AM 44.1 °F - 37.0 °F 76% 30.05 in 10.0 mi Calm Calm - N/A   Clear
9:53 AM 48.9 °F - 37.0 °F 64% 30.04 in 10.0 mi Calm Calm - N/A   Clear
10:53 AM 52.0 °F - 30.9 °F 45% 30.01 in 10.0 mi East 4.6 mph - N/A   Clear
11:53 AM 55.0 °F - 30.9 °F 40% 30.01 in 10.0 mi Calm Calm - N/A   Partly Cloudy
12:53 PM 57.0 °F - 32.0 °F 39% 30.00 in 10.0 mi Variable 3.5 mph - N/A   Partly Cloudy
1:53 PM 55.9 °F - 30.9 °F 39% 30.00 in 10.0 mi WNW 4.6 mph - N/A   Overcast
2:53 PM 57.9 °F - 28.9 °F 33% 30.01 in 10.0 mi Variable 4.6 mph - N/A   Mostly Cloudy
3:53 PM 57.0 °F - 30.9 °F 37% 30.01 in 10.0 mi WNW 3.5 mph - N/A   Mostly Cloudy
4:53 PM 53.1 °F - 32.0 °F 45% 30.05 in 10.0 mi West 9.2 mph - N/A   Overcast
5:20 PM 46.4 °F 38.3 °F 37.4 °F 71% 30.05 in 10.0 mi NNW 23.0 mph 29.9 mph 0.00 in Rain Light Rain
5:53 PM 45.0 °F 36.4 °F 37.0 °F 74% 30.12 in 10.0 mi NW 23.0 mph 34.5 mph 0.00 in   Overcast
6:53 PM 43.0 °F 36.4 °F 34.0 °F 71% 30.15 in 10.0 mi NNW 12.7 mph - 0.00 in   Overcast
7:53 PM 39.0 °F 35.7 °F 33.1 °F 79% 30.19 in 10.0 mi SSW 4.6 mph - N/A   Clear
8:53 PM 36.0 °F 33.3 °F 32.0 °F 86% 30.19 in 10.0 mi WSW 3.5 mph - N/A   Clear
9:53 PM 35.1 °F 32.2 °F 30.9 °F 85% 30.20 in 10.0 mi WSW 3.5 mph - N/A   Clear
10:53 PM 30.9 °F 25.2 °F 30.0 °F 96% 30.21 in 10.0 mi SW 5.8 mph - N/A   Clear
11:53 PM 30.9 °F - 28.9 °F 92% 30.21 in 10.0 mi Calm Calm - N/A   Clear